This demonstration page uses our WeatherBlox Daily Observations layout. Learn more.

Left ArrowRight Arrow

39.92423, -83.80882

Hourly Observations for May 20, 2018

Temp ( °F °C ) Dew Point ( °F °C ) Humidity (%) Winds ( mph kmh ) Pressure ( in mb ) Visibility ( mi km ) Precip ( " mm )
12:56 am 00:56 Partly Cloudy 67 19.4 66 18.9 97 97 SW 9 15 29.98 1015 10 16.0934 0 0
1:56 am 01:56 Mostly Clear 67 19.4 66 18.9 97 97 SW 7 11 29.98 1015 8 12.87472 0 0
2:27 am 02:27 Mostly Cloudy with Mist and Fog 66 19 64 18 94 94 WSW 5 7 29.97 1015 6 9.65604 0 0
2:56 am 02:56 Cloudy with Mist and Fog 66 18.9 66 18.9 100 100 SW 7 11 29.98 1015 5 8.0467 0 0
3:32 am 03:32 Cloudy with Mist and Fog 66 19 66 19 100 100 W 7 11 30 1016 5 8.0467 0 0
3:56 am 03:56 Cloudy with Mist and Fog 67 19.4 66 18.9 97 97 W 7 11 30.01 1016 6 9.65604 0 0
4:16 am 04:16 Cloudy with Mist and Fog 66 19 66 19 100 100 W 7 11 30 1016 5 8.0467 0 0
4:56 am 04:56 Cloudy with Mist and Fog 67 19.4 66 18.9 97 97 W 5 7 30 1016 5 8.0467 0 0
5:12 am 05:12 Cloudy with Mist and Fog 66 19 66 19 100 100 WNW 7 11 30 1016 4 6.43736 0 0
5:56 am 05:56 Cloudy with Mist and Fog 66 18.9 65 18.3 96 96 NNW 6 9 30.04 1017 4 6.43736 0 0
6:11 am 06:11 Cloudy with Mist and Fog 64 18 64 18 100 100 NNW 6 9 30.03 1017 2.5 4.02335 0 0
6:56 am 06:56 Cloudy with Mist and Fog 64 17.8 63 17.2 96 96 N 7 11 30.05 1018 2 3.21868 0 0
7:03 am 07:03 Mostly Cloudy with Mist and Fog 64 18 63 17 94 94 N 6 9 30.03 1017 2 3.21868 0 0
7:12 am 07:12 Mostly Cloudy with Mist and Fog 64 18 63 17 94 94 N 6 9 30.03 1017 2.5 4.02335 0 0
7:16 am 07:16 Partly Cloudy with Mist and Fog 64 18 61 16 88 88 N 8 13 30.03 1017 4 6.43736 0 0
7:56 am 07:56 Mostly Sunny 64 17.8 60 15.6 87 87 undefined N/A 30.08 1019 9 14.48406 0 0
8:13 am 08:13 Mostly Sunny 64 18 61 16 88 88 NNW 6 9 30.09 1019 9 14.48406 0 0
8:56 am 08:56 Sunny 65 18.3 60 15.6 84 84 undefined N/A 30.1 1019 10 16.0934 0 0
9:56 am 09:56 Sunny 68 20 62 16.7 81 81 N 7 11 30.11 1020 10 16.0934 0 0
10:56 am 10:56 Sunny 70 21.1 62 16.7 76 76 VRB 3 6 30.1 1019 10 16.0934 0 0
11:56 am 11:56 Mostly Sunny 72 22.2 64 17.8 76 76 N 6 9 30.11 1020 10 16.0934 0 0
12:56 pm 12:56 Mostly Sunny 74 23.3 65 18.3 74 74 WNW 6 9 30.13 1020 10 16.0934 0 0
1:56 pm 13:56 Mostly Sunny 77 25 66 18.9 69 69 undefined N/A 30.11 1020 10 16.0934 0 0
2:56 pm 14:56 Sunny 77 25 64 17.8 64 64 Calm 30.11 1020 10 16.0934 0 0
3:56 pm 15:56 Mostly Sunny 77 25 64 17.8 64 64 undefined N/A 30.1 1019 10 16.0934 0 0
4:56 pm 16:56 Mostly Sunny 78 25.6 65 18.3 64 64 NNE 8 13 30.08 1019 10 16.0934 0 0
5:56 pm 17:56 Partly Cloudy 78 25.6 64 17.8 62 62 NNE 5 7 30.08 1019 10 16.0934 0 0
6:56 pm 18:56 Mostly Sunny 75 23.9 63 17.2 66 66 N 7 11 30.09 1019 10 16.0934 0 0
7:56 pm 19:56 Sunny 75 23.9 64 17.8 69 69 NE 8 13 30.08 1019 10 16.0934 0 0
8:56 pm 20:56 Clear 70 21.1 62 16.7 76 76 E 9 15 30.09 1019 10 16.0934 0 0
9:56 pm 21:56 Clear 66 18.9 61 16.1 84 84 NE 8 13 30.11 1020 10 16.0934 0 0
10:56 pm 22:56 Clear 64 17.8 60 15.6 87 87 NE 6 9 30.12 1020 10 16.0934 0 0
11:56 pm 23:56 Clear 63 17.2 61 16.1 93 93 NE 6 9 30.13 1020 10 16.0934 0 0

Powered by AerisWeather